FW1602 Weather Reports


time (UTC)temp
F
wind
direction
speed
knots
gust
knots
rain 1hr
in
rain 24hr
in
rain mn
in
humidity
%
barometer
mb
20260508043004 64 207 6.1 8.7 0.00 0.00 0.00 46 1016.2
20260508041525 64 219 4.3 7.0 0.00 0.00 0.00 45 1016.1
20260508040005 63 183 4.3 8.7 0.00 0.00 0.00 45 1016.1
20260508034525 62 222 3.5 6.1 0.00 0.00 0.00 45 1016.0
20260508033004 62 221 3.5 7.0 0.00 0.00 0.00 45 1016.1
20260508031504 61 203 3.5 4.3 0.00 0.00 0.00 48 1016.1
20260508030025 63 224 3.5 5.2 0.00 0.00 0.00 43 1016.0
20260508024504 64 210 3.5 5.2 0.00 0.00 0.00 39 1016.0
20260508023025 64 208 3.5 5.2 0.00 0.00 0.00 38 1015.9
20260508021504 64 213 5.2 8.7 0.00 0.00 0.00 36 1016.0
20260508020005 62 207 2.6 3.5 0.00 0.00 0.00 40 1016.0
20260508014504 62 208 3.5 5.2 0.00 0.00 0.00 41 1016.1
20260508013004 61 233 2.6 5.2 0.00 0.00 0.00 46 1016.4
20260508011505 62 190 3.5 5.2 0.00 0.00 0.00 43 1016.6
20260508010005 60 229 1.7 3.5 0.00 0.00 0.00 49 1017.0
20260508004506 58 274 1.7 4.3 0.00 0.00 0.00 54 1017.3
20260508003005 59 260 2.6 4.3 0.00 0.00 0.00 51 1017.2
20260508001506 58 266 1.7 1.7 0.00 0.00 0.00 52 1017.4
20260508000006 59 335 2.6 4.3 0.00 0.00 0.00 51 1017.4
20260507234500 60 329 1.7 4.3 0.00 0.00 0.00 50 1017.5
20260507233000 60 319 2.6 4.3 0.00 0.00 0.00 47 1017.6
20260507231500 62 250 0.9 1.7 0.00 0.00 0.00 42 1017.3
20260507230001 62 194 2.6 4.3 0.00 0.00 0.00 40 1017.5
20260507224500 61 333 1.7 4.3 0.00 0.00 0.00 46 1017.8
20260507223000 63 235 0.9 3.5 0.00 0.00 0.00 35 1017.5
20260507221500 64 210 2.6 4.3 0.00 0.00 0.00 32 1017.5
20260507220022 65 199 3.5 5.2 0.00 0.00 0.00 30 1017.6
20260507214500 64 194 5.2 8.7 0.00 0.00 0.00 31 1017.6
20260507213000 64 209 4.3 8.7 0.00 0.00 0.00 33 1017.7
20260507211501 64 178 5.2 7.0 0.00 0.00 0.00 32 1017.6
20260507210012 64 193 7.8 12.2 0.00 0.00 0.00 32 1017.2
20260507204500 65 182 7.0 11.3 0.00 0.00 0.00 32 1017.3
20260507203000 65 161 7.0 10.4 0.00 0.00 0.00 31 1017.4
20260507201500 65 205 7.8 13.0 0.00 0.00 0.00 31 1017.6
20260507200002 65 194 7.0 10.4 0.00 0.00 0.00 29 1017.4
20260507194521 65 189 4.3 7.0 0.00 0.00 0.00 27 1017.6
20260507193000 65 194 4.3 6.1 0.00 0.00 0.00 27 1017.5
20260507191500 65 195 4.3 7.0 0.00 0.00 0.00 25 1017.4
20260507190003 63 186 3.5 5.2 0.00 0.00 0.00 32 1017.8
20260507184500 63 205 4.3 5.2 0.00 0.00 0.00 37 1017.8
20260507183001 64 205 4.3 7.0 0.00 0.00 0.00 36 1017.5
20260507181501 64 217 4.3 5.2 0.00 0.00 0.00 38 1017.5
20260507180023 64 247 2.6 5.2 0.00 0.00 0.00 36 1017.5
20260507174501 64 195 3.5 5.2 0.00 0.00 0.00 36 1017.2
20260507173001 64 218 4.3 6.1 0.00 0.00 0.00 36 1017.5
20260507171501 64 247 1.7 3.5 0.00 0.00 0.00 37 1017.5
20260507170002 64 181 3.5 5.2 0.00 0.00 0.00 37 1017.2
20260507164522 64 199 3.5 5.2 0.00 0.00 0.00 36 1017.0
20260507163001 65 216 2.6 5.2 0.00 0.00 0.00 42 1017.1
20260507161501 65 222 2.6 4.3 0.00 0.00 0.00 38 1017.2
20260507160001 66 234 2.6 4.3 0.00 0.00 0.00 38 1017.3
20260507154501 67 210 3.5 4.3 0.00 0.00 0.00 35 1017.0
20260507153001 68 195 3.5 7.0 0.00 0.00 0.00 36 1017.2
20260507151501 68 203 3.5 3.5 0.00 0.00 0.00 39 1017.0
20260507150002 69 171 4.3 7.0 0.00 0.00 0.00 38 1016.9
20260507144502 69 197 3.5 5.2 0.00 0.00 0.00 35 1016.8
20260507143001 70 216 4.3 7.0 0.00 0.00 0.00 32 1016.8
20260507141501 71 183 4.3 7.0 0.00 0.00 0.00 36 1016.6
20260507140023 73 194 3.5 5.2 0.00 0.00 0.00 37 1016.2
20260507134501 73 215 3.5 5.2 0.00 0.00 0.00 37 1016.0
20260507133002 72 211 2.6 4.3 0.00 0.00 0.00 33 1016.0
20260507131502 72 178 4.3 5.2 0.00 0.00 0.00 30 1016.0
20260507130004 71 187 3.5 5.2 0.00 0.00 0.00 32 1016.2
20260507124501 72 196 3.5 5.2 0.00 0.00 0.00 30 1016.4
20260507123002 74 183 3.5 4.3 0.00 0.00 0.00 29 1016.4
20260507121501 74 181 2.6 5.2 0.00 0.00 0.00 29 1016.5
20260507120002 75 206 3.5 7.0 0.00 0.00 0.00 30 1016.4
20260507114501 76 175 4.3 7.0 0.00 0.00 0.00 35 1016.3
20260507113002 77 188 4.3 7.0 0.00 0.00 0.00 39 1016.0
20260507111503 76 190 3.5 5.2 0.00 0.00 0.00 39 1016.3
20260507110003 76 177 4.3 5.2 0.00 0.00 0.00 39 1016.2
20260507104507 76 225 2.6 4.3 0.00 0.00 0.00 37 1016.1
20260507103002 75 213 3.5 6.1 0.00 0.00 0.00 40 1016.1
20260507101502 74 196 3.5 5.2 0.00 0.00 0.00 42 1016.2
20260507100003 75 174 4.3 7.0 0.00 0.00 0.00 38 1016.3
20260507094502 74 180 3.5 7.0 0.00 0.00 0.00 38 1016.2
20260507093003 74 212 3.5 8.7 0.00 0.00 0.00 43 1016.1
20260507091523 74 203 3.5 7.0 0.00 0.00 0.00 41 1016.2
20260507090004 74 203 2.6 3.5 0.00 0.00 0.00 43 1016.1
20260507084523 74 251 2.6 4.3 0.00 0.00 0.00 45 1016.1
20260507083003 74 168 1.7 5.2 0.00 0.00 0.00 48 1016.2
20260507081502 73 231 2.6 6.1 0.00 0.00 0.00 48 1016.3
20260507080025 71 180 2.6 5.2 0.00 0.00 0.00 51 1016.4
20260507074502 72 255 1.7 1.7 0.00 0.00 0.00 54 1016.1
20260507073002 72 259 1.7 5.2 0.00 0.00 0.00 54 1015.9
20260507071503 71 251 1.7 3.5 0.00 0.00 0.00 50 1016.1
20260507070006 71 215 1.7 3.5 0.00 0.00 0.00 51 1016.3
20260507064502 71 218 1.7 3.5 0.00 0.00 0.00 50 1016.3
20260507063003 70 221 1.7 5.2 0.00 0.00 0.00 46 1016.4
20260507061504 70 6 1.7 1.7 0.00 0.00 0.00 49 1016.3
20260507060003 69 22 0.9 1.7 0.00 0.00 0.00 52 1016.3
20260507054502 68 5 1.7 1.7 0.00 0.00 0.00 50 1016.3
20260507053003 67 333 0.9 1.7 0.00 0.00 0.00 47 1016.4
20260507051503 66 360 0.9 1.7 0.00 0.00 0.00 51 1016.4
20260507050003 64 292 0.9 1.7 0.00 0.00 0.00 58 1016.8
20260507044503 61 283 1.7 1.7 0.00 0.00 0.00 60 1016.9